Regional Weather Roundup
Issued by NWS Pendleton, OR

Home | Current Version | Previous Version | Text Only | Print | Product List | Glossary On
Versions: 1 2 3 4 5 6 7 8 9 10 11 12 13 14 15 16 17 18 19 20 21 22 23 24 25 26 27 28 29 30 31 32 33 34 35 36 37 38 39 40 41 42 43 44 45 46 47 48 49 50
000
ASUS46 KPDT 230925
RWRPDT
PENDLETON REGIONAL WEATHER ROUNDUP
NATIONAL WEATHER SERVICE PENDLETON OREGON
200 AM PDT SAT AUG 23 2014

NOTE: FAIR INDICATES FEW OR NO CLOUDS BELOW 12,000 FEET WITH NO
SIGNIFICANT WEATHER AND/OR OBSTRUCTIONS TO VISIBILITY.

# INDICATES UNOFFICIAL STATION AND DATA

WAZ520-231010-
EAST SLOPES OF WASHINGTON CASCADES

CITY            SKY/WX      TMP DP  RH  WIND    PRES   REMARKS
#CLE ELUM HS    N/A         50  49  96  CALM    30.07F
#CLE ELUM 2NW   N/A         48  48  100 W1      N/A
#CLE ELUM LAKE  N/A         53  48  83  E1      30.06S
#CLIFFDEL 2NW   N/A         51  48  89  CALM    N/A
#GLENWOOD       N/A         48  46  93  CALM    30.07R
#NELSON         N/A         48  47  96  CALM    30.11R
#NELSON 3SW     N/A         48  47  96  CALM    30.28S
#NILE           N/A         50  49  96  CALM    29.38R
#TEANAWAY 4NE   N/A         50  49  96  CALM    N/A
#TROUT LAKE 1NE N/A         49  48  96  CALM    30.07R
$$

WAZ521-231010-
SIMCOE HIGHLANDS

CITY            SKY/WX      TMP DP  RH  WIND    PRES   REMARKS
#BICKLETON HS   N/A         58  41  53  N10     30.12F
#CENTERVILLE 4W N/A         61  47  60  N2      29.84R
#CENTERVILLE 1SWN/A         53  44  71  CALM    30.00R
#GOLDENDALE     N/A         57  47  69  N1      N/A
#GOLDENDALE 1NE N/A         55  46  72  SE2     N/A
#GOLDENDALE 1S  N/A         57  48  72  CALM    30.06R
#GOLDENDALE 5WNWN/A         N/A N/A N/A CALM    30.03R
#GOODNOE HILLS  N/A         69  49  49  NE18    29.99R
#LYLE 6NE       N/A         59  53  80  CALM    30.00R
$$

WAZ026-231010-
KITTITAS VALLEY

CITY            SKY/WX      TMP DP  RH  WIND    PRES   REMARKS
ELLENSBURG AP   CLEAR       59  50  72  NW9     30.10S
#ELLENSBURG CWU N/A         58  50  75  NW3     30.01S
#ELLENSBURG 3NE N/A         58  50  75  N3      30.10R
#ELLENSBURG     N/A         61  54  78  NW3     N/A
#ELLENSBURG 1E  N/A         58  48  69  CALM    N/A
#KITTITAS 3S    N/A         52  49  89  CALM    30.03S
#THORP 6N       N/A         51  49  93  N7      30.08S
$$

WAZ027-231010-
YAKIMA VALLEY

CITY            SKY/WX      TMP DP  RH  WIND    PRES   REMARKS
SUNNYSIDE AP    CLEAR       61  50  67  N6      30.06R
YAKIMA AIRPORT  CLEAR       64  51  63  W7      30.09R
YAKIMA-VAGABOND CLEAR       60  49  67  E9      30.10R
#COWICHE 1N     N/A         60  50  69  NW3     30.26S
#DONALD 2NE     N/A         62  50  65  SW3     30.40R
#GRANDVIEW      N/A         65  49  56  SW1     30.04R
#MABTON         N/A         64  52  65  W5      30.05R
#MOXEE 2E       N/A         64  42  45  N8      30.00R
#NACHES 2SW     N/A         60  51  72  W8      30.11R
#OUTLOOK DOT    N/A         N/A N/A N/A W5      N/A
#SELAH 8E       N/A         55  50  83  E3      N/A
#TERRACE HTS    N/A         62  50  65  N1      30.00R
#TOPPENISH      N/A         62  52  70  W1      29.96S
#WAPATO 4NE     N/A         62  50  65  SW3     30.40R
#WEST VALLEY    N/A         61  51  70  CALM    30.03R
#W YAKIMA       N/A         62  51  67  W3      30.04R
#WHITE SWAN 5E  N/A         57  51  80  CALM    30.05R
#WILEY CITY 3W  N/A         70  56  61  CALM    30.09R
$$

WAZ028-231010-
LOWER COLUMBIA BASIN...WASHINGTON

CITY            SKY/WX      TMP DP  RH  WIND    PRES   REMARKS
PASCO           CLEAR       63  53  70  CALM    30.03R
PROSSER AWOS    N/A         63  52  67  SW5     30.08R
RICHLAND AWOS   CLEAR       64  52  65  N6      30.04R
#BASIN CITY 5SW N/A         59  54  83  CALM    30.04R
#BENTON CITY    N/A         69  51  53  W1      29.92R
#CONNELL 5N     N/A         56  50  80  NW6     30.01R
#CONNELL 5NW    N/A         56  51  83  N3      29.98R
#ELTOPIA        N/A         61  53  75  N3      29.98R
#ELTOPIA 6NW    N/A         60  53  78  NW7     29.01R
#KENNEWICK 3S   N/A         61  58  90  CALM    30.02R
#PASCO-BROADMOORN/A         65  53  65  W2      29.91
#PATERSON       N/A         67  52  59  N3      30.00R
#PROSSER        N/A         65  48  54  W5      30.02R
#SAGEMOOR 2W    N/A         61  54  78  NW5     29.87R
#TOUCHET 2S     N/A         60  52  75  CALM    29.99R
#WEST PASCO     N/A         65  51  60  CALM    30.01R
$$

WAZ029-231010-
FOOTHILLS OF THE BLUES...WASHINGTON

CITY            SKY/WX      TMP DP  RH  WIND    PRES   REMARKS
WALLA WALLA AP  CLEAR       60  48  64  SE7     30.04R
#COLLEGE PLACE  N/A         62  51  67  CALM    30.03R
#DAYTON SCHOOL  N/A         54  42  64  N2      30.03R
#LOWDEN 2SE     N/A         57  51  80  CALM    29.99R
#PLEASANT VIEW 1N/A         58  52  80  N1      30.03R
#PRESCOTT       N/A         55  51  86  CALM    29.99R
#SUDBURY        N/A         56  N/A N/A CALM    N/A
#WHITMAN COLLEGEN/A         59  50  72  SE2     30.05R
#WAITSBURG 8N   N/A         56  45  66  CALM    29.97S
#WALLA WALLA 5E N/A         74  47  38  E15     N/A
#WALLA WALLA U  N/A         60  54  81  CALM    30.00R
$$

WAZ030-231010-
BLUE MOUNTAINS...WASHINGTON

CITY            SKY/WX      TMP DP  RH  WIND    PRES   REMARKS
$$

ORZ009-041-WAZ024-231010-
COLUMBIA RIVER GORGE

CITY            SKY/WX      TMP DP  RH  WIND    PRES   REMARKS
HOOD RIVER AP   CLEAR       55  52  90  CALM    30.08S
THE DALLES AP   CLEAR       65  55  70  NW9     30.04S
#ARLINGTON AIRPON/A         69  50  51  N8      N/A
#ARLINGTON HS   N/A         72  50  46  CALM    29.91R
#MARYHILL 2W    N/A         66  56  70  E1      N/A
#MOSIER 1S      N/A         60  47  62  CALM    30.12S
#MURDOCK        N/A         68  58  70  NW12    30.05R

$$

ORZ510-231010-
NORTH CENTRAL OREGON

CITY            SKY/WX      TMP DP  RH  WIND    PRES   REMARKS
#CHENOWITH 1W   N/A         58  52  80  W14     N/A
#COW CYN RST AREN/A         58  47  67  CALM    N/A
#DUFUR 9E       N/A         62  50  65  SW2     30.06S
#GRASS VALLEY   N/A         52  46  80  SE1     N/A
#GRASS VALLEY 1SN/A         57  48  72  CALM    30.04R
#KENT DOT       N/A         56  47  72  CALM    N/A
#MAUPIN SCHOOL  N/A         61  48  62  CALM    28.95R
#MORO SCHOOL    N/A         58  53  83  CALM    30.09R
#SHANIKO 5WSW   N/A         56  44  64  N9      N/A
#SHANIKO 4NW    N/A         55  47  74  N7      30.13S
#TYGH VALLEY 2NEN/A         57  48  72  CALM    30.03S
#WAPANITIA AIRPON/A         57  49  75  NW2     30.04R
#WASCO DOT      N/A         55  51  86  E3      N/A
#WASCO AIRPORT  N/A         61  50  67  W2      N/A
#WASCO 5NE      N/A         56  51  83  CALM    30.02R
$$

ORZ511-231010-
CENTRAL OREGON

CITY            SKY/WX      TMP DP  RH  WIND    PRES   REMARKS
BEND AIRPORT    CLEAR       48  43  83  CALM    30.15S
MADRAS AIRPORT  CLEAR       52  45  77  S3      30.13S
REDMOND AIRPORT CLEAR       53  43  69  SW5     30.13R
#BEND 6E        N/A         52  42  69  CALM    29.97F
#BEND-AWBREY    N/A         54  45  71  CALM    30.04S
#BEND-KIM LN    N/A         50  44  80  CALM    30.12S
#CROOKED RVR RANN/A         54  44  69  N18     30.03R
#CULVER         N/A         53  46  77  CALM    30.09R
#LAKE BILLY CHINN/A         54  29  38  CALM    30.17R
#POWELL BUTTE 3EN/A         54  45  71  W3      N/A
#POWELL BUTTE   N/A         52  42  69  W1      29.77S
#PRINEVILLE 3N  N/A         51  44  77  CALM    30.00R
#WARM SPRINGS   N/A         60  48  64  CALM    30.06S


ORZ509-231010-
EAST SLOPES OF OREGON CASCADES

CITY            SKY/WX      TMP DP  RH  WIND    PRES   REMARKS
#BLUE BOX PASS  N/A         51  -1  11  CALM    N/A
#BLACK BUTTE RNCN/A         47  44  89  CALM    30.06S
#CAMP SHERMAN   N/A         44  42  93  CALM    30.07R
#LA PINE DOT    N/A         48  42  80  NW2     N/A
#LA PINE 4NW    N/A         41  38  89  CALM    30.11R
#LAVA BUTTE DOT N/A         47  41  79  CALM    N/A
#SISTERS AIRPOR N/A         45  45  100 CALM    30.11S
#SISTERS ODOT   N/A         46  N/A N/A CALM    N/A
#SISTERS 1NW    N/A         46  44  93  N6      N/A
#SISTERS 3N     N/A         44  39  82  CALM    N/A
#SUNRIVER       N/A         48  43  83  CALM    29.93F
#SUTTLE LK DOT  N/A         43  41  93  E8      N/A
#TUMALO 3W      N/A         57  45  64  W3      29.93S
#WANOGA BUTTE D N/A         45  41  86  NE6     N/A

$$

ORZ044-231010-
LOWER COLUMBIA BASIN...OREGON

CITY            SKY/WX      TMP DP  RH  WIND    PRES   REMARKS
HERMISTON       CLEAR       66  51  58  N5      30.03R
#BOARDMAN SCHOOLN/A         68  52  57  CALM    30.03
#BOARDMAN 3W    N/A         64  51  63  CALM    29.74R
#BOARDMAN 8SW   N/A         64  53  67  CALM    30.01R
#ECHO 8SW       N/A         61  49  65  W3      30.01R
#IONE SCHOOL    N/A         62  50  65  CALM    30.05R
#IRRIGON 4NW    N/A         67  52  59  SE2     N/A
#UMATILLA SCHOOLN/A         66  57  73  W5      30.08R
#UMATILLA       N/A         68  50  53  CALM    29.99R
$$

ORZ507-231010-
NORTHERN FOOTHILLS OF THE BLUES

CITY            SKY/WX      TMP DP  RH  WIND    PRES   REMARKS
PENDLETON AIRPT CLEAR       55  45  69  N5      30.04R
#ADAMS 3WNW     N/A         54  45  71  CALM    30.00R
#ATHENA         N/A         52  45  77  CALM    30.03R
#HELIX SCHOOL   N/A         56  44  64  E2      29.99R
#HELIX 3N       N/A         57  45  64  CALM    30.02R
#HOLDMAN 5SE    N/A         57  46  67  CALM    30.05R
#HOLDMAN 6E     N/A         57  48  72  CALM    29.82R
#M-F GROVE ELEM N/A         58  49  72  CALM    30.03R
#M-FREEWATER 5SEN/A         58  49  72  NE1     30.04R
#PDT AQUATIC CTRN/A         61  45  56  CALM    30.01R
#PENDLETON DNTN N/A         61  44  53  CALM    30.01R
#PDT SUNRIDGE   N/A         58  49  72  CALM    30.05R
#PENDLETON 7NW  N/A         56  44  64  CALM    N/A
#PILOT ROCK     N/A         61  46  58  S5      30.08R
#TUTUILLA       N/A         59  50  72  CALM    29.95R
#UMAPINE 2E     N/A         55  51  86  CALM    30.01R
#WESTON SCHOOL  N/A         55  47  74  CALM    30.02R

$$

ORZ508-231010-
SOUTHERN FOOTHILLS OF THE BLUES

CITY            SKY/WX      TMP DP  RH  WIND    PRES   REMARKS
LEXINGTON       CLEAR       57  48  72  CALM    30.09R
#AJAX           N/A         62  45  54  CALM    30.03R
#CONDON SCHOOL  N/A         56  48  74  CALM    30.07R
#CONDON 5W      N/A         57  45  64  N7      30.09R
#FOSSIL SCHOOL  N/A         53  45  74  CALM    30.08S
#HEPPNER 4NE    N/A         53  47  80  CALM    30.01R
#LEXINGTON 2SE  N/A         58  50  75  SE2     30.04R
#MIKKALO        N/A         57  43  59  E2      30.08R
#OLEX 4N        N/A         61  51  70  CALM    30.05R
#RUGGS 5NE      N/A         55  50  83  W1      30.27S
#RUGGS 2SW      N/A         57  48  72  NW3     30.07R

$$

ORZ502-503-231010-
BLUE MOUNTAINS

CITY            SKY/WX      TMP DP  RH  WIND    PRES   REMARKS
MEACHAM         PTCLDY      46  44  93  CALM    30.10R
#BATTLE MTN DOT N/A         50  50  100 CALM    N/A
#HARDMAN 10S    N/A         51  46  83  CALM    30.17R
#HEPPNER 15SE   N/A         46  42  86  CALM    30.05R
#LADD CYN SMT   N/A         48  42  80  W5      N/A
#LADD CREEK ODOTN/A         46  46  100 SW3     N/A
#LONG CREEK HS  N/A         52  49  89  CALM    N/A
#N POWDER DOT   N/A         49  47  93  NE6     N/A
#PIKES PEAK     N/A         58  45  62  NE7     27.99S
#TOLLGATE       N/A         49  43  80  N3      30.05R
#TOLLGATE 9W    N/A         54  47  77  SE2     N/A
#TROY SCHOOL    N/A         55  53  93  CALM    29.88R
#UKIAH          N/A         46  43  89  CALM    30.08R
#WESTON 4E      N/A         55  45  69  CALM    29.95R
$$

ORZ505-231010-
JOHN DAY BASIN

CITY            SKY/WX      TMP DP  RH  WIND    PRES   REMARKS
JOHN DAY        CLEAR       55  45  69  N6      30.11R
#JOHN DAY KJDY  N/A         54  48  80  CALM    30.19F
#MONUMENT HS    N/A         57  49  75  N1      30.09R
#MT. VERNON 5SE N/A         55  43  64  SW1     30.08R
#WINLOCK        N/A         52  47  83  CALM    30.18S
$$

ORZ506-231010-
OCHOCO AND JOHN DAY HIGHLANDS

CITY            SKY/WX      TMP DP  RH  WIND    PRES   REMARKS
#BUCK CREEK DOT N/A         52  44  74  NW5     N/A
#HORSE RIDGE DO N/A         42  36  79  SE6     N/A
#KEYES SMT DOT  N/A         53  42  66  W1      N/A
#PAULINA SCHOOL N/A         52  42  69  N1      30.11R
#PRAIRIE CITY   N/A         42  38  86  CALM    30.19R
#SENECA 9NW     N/A         50  41  71  CALM    29.98R
$$

ORZ049-231010-
GRANDE RONDE VALLEY

CITY            SKY/WX      TMP DP  RH  WIND    PRES   REMARKS
LA GRANDE       PTCLDY      54  39  57  N8      30.07R
#COVE           N/A         50  49  96  CALM    29.99R
#COVE SCHOOL    N/A         51  48  89  CALM    30.05R
#COVE 6NW       N/A         49  45  86  W3      30.06R
#ELGIN 3N       N/A         51  45  80  CALM    29.81R
#ELGIN 1E       N/A         51  46  83  CALM    N/A
#IMBLER SCHOOL  N/A         52  46  80  N3      30.04R
#ISLAND CITY 4N N/A         52  45  77  CALM    29.95R
#LADD CYN DOT   N/A         50  47  89  SE7     N/A
#LA GRANDE ELEM N/A         56  45  66  W7      30.05R
#UNION 1S       N/A         49  47  93  CALM    29.93R
$$

ORZ050-231010-
WALLOWA COUNTY

CITY            SKY/WX      TMP DP  RH  WIND    PRES   REMARKS
JOSEPH AIRPORT  MOCLDY      46  46  100 CALM    30.12S
#ENTERPRISE AP  N/A         47  43  86  E1      30.03R
#ENTERPRISE HS  N/A         47  45  93  CALM    30.10S
#IMNAHA SCHOOL  N/A         52  49  89  CALM    30.07R
#IMNAHA 10S     N/A         47  45  93  SW2     30.09R
#JOSEPH 3N      N/A         44  41  89  CALM    30.11S
#JOSEPH 3W      N/A         45  44  96  CALM    29.94S
#MT HOWARD 8000 N/A         37  36  96  W3      30.20R
#PROMISE 1S     N/A         49  48  96  CALM    30.10R
#SHEEP RDG 7000 N/A         42  38  86  CALM    30.01R
#WALLOWA SCHOOL N/A         50  49  96  CALM    30.95R



$$



USA.gov is the U.S. government's official web portal to all federal, state and local government web resources and services.